www.pogodaiklimat.ru

Погода и климат >> Архив погоды >> КНДР >> Wonsan


ПОГОДА в Wonsan

  • Прогноз погоды в Wonsan
  • Монитор погоды в Wonsan
  • Климат города

АРХИВ ПОГОДЫ в Wonsan

Время (UTC), дата Ветер
(напр.,м/с)
 
Видим.   Явления Облачность Т
(С)
Тd
(С)
f
(%)
Тe
(С)
Тes
(С)
Комфортность P
(гПа)
Po
(гПа)
Тmin
(С)
Tmax
(С)
R
(мм)
R24
(мм)
S
(см)
00 14.05 штиль 0 6000 м дымка ясно +22.2 +13.2 57 +25 +38 комфорт 1008.1 1003.7 +13.0
03 14.05 штиль 0 6000 м дымка ясно +26.7 +13.9 45 +29 +55 опасность
солнечного
удара
1008.8 1004.4
06 14.05 штиль 0 6000 м дымка ясно +26.9 +15.0 48 +30 +48 душно 1008.8 1004.4
09 14.05 штиль 0 6000 м дымка 5/0
[Ci sp]
+23.3 +13.5 54 +27 +29 душно 1007.4 1003.0
12 14.05 З 1 15 км дымка ясно +21.2 +12.8 59 +23 +23 комфорт 1007.6 1003.2 +28.3
15 14.05 штиль 0 20 км ясно +20.6 +12.5 60 +23 +23 комфорт 1007.6 1003.2
18 14.05 штиль 0 20 км ясно +18.8 +11.5 63 +19 +19 1008.1 1003.7
21 14.05 штиль 0 10 км ясно +18.6 +13.5 72 +19 +20 1008.1 1003.7
00 15.05 штиль 0 20 км 1/0
[Ci fib]
+24.2 +10.0 41 +25 +38 комфорт 1010.8 1006.6 +16.5
03 15.05 штиль 0 20 км 8/0
[Ci fib]
+28.7 +13.0 38 +30 +52 опасность
солнечного
удара
1010.5 1006.3
06 15.05 штиль 0 20 км ясно +27.7 +13.3 41 +29 +48 жарко 1007.7 1003.5
09 15.05 штиль 0 20 км 3/0
[Ci fib]
+30.9 +16.0 41 +34 +37 душно 1006.4 1002.2
12 15.05 Ю 2 20 км 8/0
[Ac und]
+26.6 +16.8 55 +30 +30 душно 1006.4 1002.2 +33.1
15 15.05 ЮЗ 2 20 км 8/8 600 м
[Sc]
+25.3 +17.8 63 +30 +30 душно 1005.7 1001.5
18 15.05 штиль 0 20 км 8/8 600 м
[Sc]
+24.6 +19.2 72 +30 +30 очень
душно
1004.7 1000.5
21 15.05 штиль 0 15 км слабый дождь 10/0 600 м
[As op]
+23.1 +19.9 82 +30 +30 очень
душно
1004.0 999.8
00 16.05 В 2 15 км слабый дождь {гроза} 10/0 600 м
[As op]
+22.5 +20.8 90 +29 +31 очень
душно
1002.0 997.8 +19.9 3
03 16.05 штиль 0 6000 м дождь 10/0 600 м
[As op]
+20.2 +19.4 95 +24 +29 комфорт 1002.3 998.1
06 16.05 штиль 0 15 км 8/5 600 м
[Sc Ac trans]
+25.3 +22.9 87 +34 +40 очень
душно
1001.7 997.5 8
09 16.05 штиль 0 25 км 4/3 600 м
[Sc diur, vesp Ac trans]
+24.4 +20.4 78 +30 +32 очень
душно
1001.0 996.8
12 16.05 ЮЗ 4 25 км 9/3 600 м
[Sc Ac trans Ci fib]
+23.9 +19.4 76 +29 +29 душно 1002.8 998.6 +25.9 8
15 16.05 ЮЗ 1 20 км 10/6 600 м
[Sc Ci fib]
+22.5 +19.2 82 +28 +28 душно 1002.7 998.5
18 16.05 штиль 0 15 км слабый дождь 10/0 600 м
[As op]
+21.0 +19.6 92 +26 +26 душно 1002.2 997.9 1
21 16.05 штиль 0 15 км слабый дождь 10/0 600 м
[As op]
+20.9 +20.1 95 +25 +26 комфорт 1002.3 998.0
00 17.05 штиль 0 15 км слабый дождь 10/0 600 м
[As op]
+22.1 +21.2 95 +29 +31 очень
душно
1003.8 999.5 +20.4
03 17.05 СВ 2 15 км слабый дождь 10/0 600 м
[As op]
+13.2 +12.5 96 +12 +16 1006.3 1002.0
06 17.05 СВ 2 15 км слабый дождь 10/0 600 м
[As op]
+12.5 +11.5 94 +11 +14 1008.5 1004.2 23
09 17.05 СВ 1 15 км слабый дождь 10/0 600 м
[As op]
+12.1 +10.7 91 +12 +12 1009.5 1005.2
12 17.05 штиль 0 15 км слабый дождь 10/0 600 м
[As op]
+12.0 +11.2 95 +11 +11 1009.6 1005.3 +23.2 93
15 17.05 штиль 0 15 км слабый дождь 10/0 600 м
[As op]
+12.6 +11.4 92 +12 +12 1008.6 1004.3
18 17.05 штиль 0 15 км слабый дождь 10/0 600 м
[As op]
+11.8 +11.1 95 +11 +11 1007.5 1003.1 152
21 17.05 штиль 0 10 км слабый дождь 10/0 600 м
[As op]
+10.5 +9.9 96 +10 +10 1007.9 1003.5
00 18.05 В 2 6000 м слабый дождь 10/0 600 м
[As op]
+11.2 +9.1 87 +10 +12 1010.0 1005.6 +10.3 9
03 18.05 В 2 10 км слабый дождь 10/0 600 м
[As op]
+10.0 +8.4 90 +8 +12 1011.0 1006.6
06 18.05 В 2 10 км 10/10 600 м
[Sc]
+11.1 +7.8 80 +10 +10 1012.3 1007.4
09 18.05 В 1 15 км 10/10 600 м
[Sc]
+11.1 +6.4 73 +11 +11 1013.0 1008.6
12 18.05 В 2 15 км 10/10 600 м
[Sc]
+10.7 +6.7 76 +9 +9 1015.2 1010.8 +13.1
15 18.05 З 1 15 км 10/10 600 м
[Sc]
+10.3 +7.8 84 +10 +10 1016.4 1012.0
18 18.05 штиль 0 20 км 3/0
[Ci fib]
+9.1 +7.3 88 +8 +8 1017.7 1013.3
21 18.05 штиль 0 20 км ясно +7.9 +5.0 82 +7 +8 1018.4 1013.9
00 19.05 штиль 0 15 км ясно +13.8 +7.3 65 +14 +27 опасность
простуды
1018.8 1014.4 +7.3
03 19.05 СВ 3 20 км ясно +15.1 +6.7 57 +15 +31 опасность
простуды
1019.2 1014.8
06 19.05 С 3 25 км 3/0
[Ci fib]
+17.9 +9.8 59 +18 +29 1019.7 1015.3
09 19.05 СЗ 1 30 км 1/0
[Ci fib]
+18.4 +11.3 63 +20 +23 1019.3 1015.0
12 19.05 ЮЗ 1 30 км 3/0
[Ci fib]
+13.3 +9.5 78 +14 +14 1020.2 1015.8 +19.1
15 19.05 ЮЗ 1 30 км ясно +10.7 +8.9 89 +10 +10 1021.3 1016.8
18 19.05 ЮЗ 1 30 км ясно +9.7 +7.4 86 +9 +9 1020.9 1016.4
21 19.05 ЮЗ 1 30 км ясно +9.5 +6.2 80 +9 +9 1022.0 1017.5
00 20.05 штиль 0 15 км 10/0
[As trans]
+14.1 +11.1 82 +14 +19 1024.6 1020.2 +9.1
03 20.05 штиль 0 20 км 10/0
[As trans]
+15.3 +11.7 79 +15 +26 опасность
простуды
1026.5 1022.1
06 20.05 штиль 0 20 км 10/0
[As trans]
+16.3 +11.3 72 +16 +24 1025.5 1021.1
09 20.05 штиль 0 20 км ясно +15.6 +10.7 73 +15 +19 1024.6 1020.2
12 20.05 ЮЗ 1 25 км ясно +12.4 +8.4 77 +12 +12 1025.3 1020.8 +17.5
15 20.05 штиль 0 20 км ясно +9.3 +5.6 78 +9 +9 1023.2 1018.7
18 20.05 ЮЗ 2 20 км ясно +8.1 +3.8 74 +6 +6 1022.9 1018.4

 

Местоположение метеостанции Wonsan (КНДР): широта 39.18 долгота 127.43 высота над уровнем моря 36 м.

В архиве по умолчанию представлена погода в Wonsan за последнюю неделю. Архивные данные за месяц целиком и за предыдущие месяцы, начиная с января 2011 года, Вы можете получить, выбрав интересующий диапазон дат из раскрывающегося списка и нажав кнопку "Ввод!".


*Определитесь, кто Вы:
робот инопланетянин человек

Внимание! Время в таблицах - всемирное. Для получения местного времени необходимо прибавить поправку, которая в Wonsan равна 9 ч.

Смотрите также архив погоды в соседних городах и на ближайших метеорологических станциях:

Погода в Yangdok (КНДР) (67 км)
Погода в Changjon (КНДР) (82 км)
Погода в Hamhung (КНДР) (84 км)
Погода в Pyonggang (КНДР) (86 км)
Погода в Singye (КНДР) (109 км)
Погода в Sinpo (КНДР) (114 км)
Погода в Cheorwon (Корея) (115 км)
Погода в Changjin (КНДР) (133 км)
Погода в Sokcho (Корея) (143 км)
Погода в Pyongyang (КНДР) (143 км)

Пояснения к столбцам:

Ветер - указаны скорость ветра в м/с - средняя за 10 мин, порывы в срок и между сроками (в фигурных скобках) и направление, откуда дует ветер: С - северный, СВ - северо-восточный, В - восточный, ЮВ - юго-восточный, Ю - южный, ЮЗ - юго-западный, З - западный, СЗ - северо-западный.
Видимость - горизонтальная дальность видимости в метрах или километрах. При видимости от 1 до 10 км при отсутствии осадков обычно наблюдается дымка, при ухудшении видимости до 1 км и менее - туман. В сухую погоду видимость может ухудшаться дымом, пылью или мглою.
Явления - указаны атмосферные явления, наблюдавшиеся в срок или в последний час перед сроком; фигурными скобками обозначены явления, наблюдавшиеся между сроками (за 1-3 часа до срока); квадратными скобками обозначены град или гололедные отложения с указанием их диаметра в мм.
Облачность - указаны через наклонную черту общая и нижняя облачность в баллах и высота нижней границы облаков в метрах; квадратными скобками обозначены формы облаков: Ci - перистые, Cs - перисто-слоистые, Cc - перисто-кучевые, Ac - высококучевые, As - высокослоистые, Sc - слоисто-кучевые, Ns - слоисто-дождевые, Cu - кучевые, Cb - кучево-дождевые. Подробнее классификацию облаков см. в Атласе облаков (PDF).
T - Температура воздуха - температура, измеренная на высоте 2 м над землей.
Td - Температура точки росы - температура, при понижении до которой содержащийся в воздухе водяной пар достигнет насыщения.
f - Относительная влажность воздуха - влажноcть воздуха, измеренная на высоте 2 м над землей.
Te - Эффективная температура - температура, которую ощущает одетый по сезону человек в тени. Характеристика душности погоды. При расчете учитывается влияние влажности воздуха и скорости ветра на теплоощущения человека.
Tes - Эффективная температура на солнце - температура, которую ощущает человек, с поправкой на солнечный нагрев. Характеристика знойности погоды. Зависит от высоты солнца над горизонтом, облачности и скорости ветра. Ночью, в пасмурную погоду, а также при ветре 12 м/с и более поправка равна нулю.
P - Атмосферное давление - приведенное к уровню моря атмосферное давление.
Po - Атмосферное давление - измеренное на уровне метеостанции атмосферное давление.
Tmin - Минимальная температура - минимум температуры воздуха на высоте 2 м над землей.
Tmax - Максимальная температура - максимум температуры воздуха на высоте 2 м над землей.
R - Количество осадков - Количество выпавших осадков за период времени, мм. При наведении курсора мыши на число - период времени, за который выпало указанное количество осадков.
R24 - Количество осадков - Количество выпавших осадков за 24 часа, мм.
S - Снежный покров - Высота снежного покрова, см. При наведении курсора мыши на число - состояние снежного покрова и степень покрытия местности в баллах.